Location: Oshawa
(43.9000°N, 78.8670°W)
Time: 23:11:35
(UTC-04:00)

Cosmos 1408 Rocket - Visible Passes

Search period start: 26 April 2017 00:00
Search period end: 06 May 2017 00:00
Orbit: 602 x 631 km, 82.6° (Epoch: 25 April)

Date Brightness Start Highest point End Pass type
(mag) Time Alt. Az. Time Alt. Az. Time Alt. Az.
26 Apr 6.8 04:47:20 10° E 04:48:46 11° E 04:50:12 10° ENE visible
27 Apr 6.3 05:01:43 10° SE 05:04:58 20° E 05:08:13 10° NE visible
28 Apr 5.3 05:17:12 10° SSE 05:21:15 35° E 05:25:19 10° NNE visible
29 Apr 4.2 05:33:13 10° S 05:37:38 63° E 05:42:03 10° NNE visible
30 Apr 6.7 04:15:44 10° E 04:16:57 11° E 04:18:09 10° ENE visible
01 May 6.2 04:29:57 10° SE 04:33:08 19° E 04:36:20 10° NE visible
02 May 5.3 04:45:25 10° SSE 04:49:25 34° E 04:53:26 10° NNE visible
03 May 4.1 05:01:24 10° S 05:05:47 61° E 05:10:11 10° NNE visible
04 May 6.6 03:44:12 10° E 03:45:07 11° E 03:46:02 10° ENE visible
04 May 3.6 05:17:47 10° SSW 05:22:14 74° W 05:26:42 10° N visible
05 May 6.1 03:58:11 10° SE 04:01:18 19° E 04:04:25 10° NE visible
